This demonstration page uses our WeatherBlox Daily Observations layout. Learn more.

Left ArrowRight Arrow

40.92501, -98.34201

Hourly Observations for June 18, 2015

Temp ( °F °C ) Dew Point ( °F °C ) Humidity (%) Winds ( mph kmh ) Pressure ( in mb ) Visibility ( mi km ) Precip ( " mm )
12:53 am 00:53 Mostly Cloudy 68 20 63 17.2 84 84 ENE 5 7 29.99 1016 10 16 0.00 0.00
1:53 am 01:53 Partly Cloudy 67 19.4 62 16.7 84 84 ENE 5 7 29.98 1015 10 16 0.00 0.00
2:53 am 02:53 Mostly Cloudy 68 20 61 16.1 78 78 E 6 9 29.96 1015 10 16 0.00 0.00
3:53 am 03:53 Partly Cloudy 67 19.4 61 16.1 81 81 ESE 7 11 29.96 1014 10 16 0.00 0.00
4:53 am 04:53 Clear 67 19.4 59 15 76 76 ESE 7 11 29.95 1014 10 16 0.00 0.00
5:53 am 05:53 Clear 66 18.9 60 15.6 81 81 E 9 15 29.95 1014 10 16 0.00 0.00
6:53 am 06:53 Cloudy with Nearby Thunderstorms 66 18.9 60 15.6 81 81 E 7 11 30.00 1016 10 16 0.00 0.00
7:05 am 07:05 Cloudy with Strong Thunderstorms 64 18 59 15 83 83 NNW 29 46 30.00 1016 3 5 0.00 0.00
7:08 am 07:08 Cloudy with Strong Thunderstorms 63 17 59 15 88 88 N 23 37 30.03 1017 2 3 0.00 0.00
7:14 am 07:14 Cloudy with Strong Thunderstorms 63 17 61 16 94 94 NNW 21 33 30.03 1017 1 1 0.00 0.00
7:28 am 07:28 Mostly Cloudy with Thunderstorms 62 16.7 60 15.6 93 93 N 15 24 30.03 1017 1 2 0.51 12.95
7:33 am 07:33 Cloudy with Thunderstorms 62 16.7 61 16.1 96 96 NNE 12 19 30.03 1017 3 5 0.53 13.46
7:51 am 07:51 Cloudy with Nearby Thunderstorms 63 17 61 16 94 94 NNE 10 17 30.03 1017 10 16 0.54 13.72
7:53 am 07:53 Cloudy with Nearby Thunderstorms 62 16.7 60 15.6 93 93 N 10 17 30.04 1017 10 16 0.54 13.72
8:05 am 08:05 Cloudy with Light Rain 63 17 61 16 94 94 N 12 19 30.03 1017 10 16 0.00 0.00
8:53 am 08:53 Mostly Cloudy with Light Rain 62 16.7 60 15.6 93 93 ESE 8 13 30.02 1017 8 13 0.05 1.27
9:53 am 09:53 Sunny 63 17.2 61 16.1 93 93 ESE 13 20 30.00 1016 10 16 0.05 1.27
10:16 am 10:16 Mostly Sunny 64 17.8 62 16.7 93 93 SE 16 26 29.94 1014 8 13 0.00 0.00
10:43 am 10:43 Mostly Sunny 64 18 63 17 94 94 SE 12 19 29.97 1015 10 16 0.00 0.00
10:53 am 10:53 Mostly Sunny 66 18.9 62 16.7 87 87 E 9 15 30.02 1017 10 16 0.00 0.00
11:05 am 11:05 Mostly Cloudy 66 18.9 62 16.7 87 87 ENE 12 19 30.00 1016 10 16 0.00 0.00
11:53 am 11:53 Cloudy 66 18.9 62 16.7 87 87 ENE 10 17 30.06 1018 10 16 0.00 0.00
12:13 pm 12:13 Cloudy 67 19.4 61 16.1 81 81 E 9 15 30.03 1017 10 16 0.00 0.00
12:53 pm 12:53 Cloudy 69 20.6 62 16.7 78 78 E 8 13 30.06 1018 10 16 0.00 0.00
1:53 pm 13:53 Cloudy 69 20.6 62 16.7 78 78 NE 10 17 30.07 1018 10 16 0.00 0.00
2:53 pm 14:53 Cloudy 69 20.6 62 16.7 78 78 NE 12 19 30.06 1018 10 16 0.00 0.00
3:53 pm 15:53 Cloudy 70 21.1 62 16.7 76 76 NE 13 20 30.05 1018 10 16 0.00 0.00
4:53 pm 16:53 Cloudy 70 21.1 62 16.7 76 76 NE 13 20 30.05 1018 10 16 0.00 0.00
5:26 pm 17:26 Partly Cloudy 72 22 63 17 73 73 NNE 10 17 29.97 1015 10 16 0.00 0.00
5:53 pm 17:53 Mostly Sunny 73 22.8 61 16.1 66 66 NE 12 19 30.04 1017 10 16 0.00 0.00
6:53 pm 18:53 Sunny 72 22.2 57 13.9 59 59 NE 10 17 30.04 1017 10 16 0.00 0.00
7:53 pm 19:53 Sunny 71 21.7 59 15 66 66 ENE 8 13 30.05 1018 10 16 0.00 0.00
8:53 pm 20:53 Sunny 67 19.4 60 15.6 79 79 ENE 7 11 30.06 1018 10 16 0.00 0.00
9:53 pm 21:53 Clear 64 17.8 59 15 84 84 E 5 7 30.08 1019 10 16 0.00 0.00
10:53 pm 22:53 Clear 63 17.2 59 15 87 87 E 3 6 30.10 1019 10 16 0.00 0.00
11:53 pm 23:53 Clear 62 16.7 59 15 90 90 E 5 7 30.11 1020 10 16 0.00 0.00

Powered by AerisWeather